Total_Precipitation_Accumulation
0.08 0.17 0.25 0.26 0.23 0.20 0.17 0.16 0.29 0.34 0.48 0.57 0.73 0.72 0.75 0.74 0.68 0.65 0.75 0.71 0.65 0.65 0.74 0.76 0.81 0.82 0.82 0.84 0.87 1.08 1.63 1.95 1.93 1.81 1.80 1.77 1.75 1.88 1.96 2.01 2.05 2.29 2.44 2.51
0.12 0.15 0.18 0.18 0.21 0.20 0.15 0.14 0.13 0.21 0.39 0.45 0.71 0.85 0.83 0.84 0.80 0.75 0.73 0.69 0.66 0.59 0.70 0.81 0.89 0.92 0.93 0.99 1.05 1.18 1.56 1.88 1.87 1.75 1.69 1.62 1.69 1.83 1.96 2.04 2.22 2.41 2.40 2.40
0.17 0.20 0.19 0.27 0.23 0.19 0.18 0.18 0.18 0.29 0.44 0.46 0.55 0.71 0.81 0.84 0.80 0.73 0.74 0.67 0.68 0.72 0.81 1.01 0.95 0.99 1.07 1.00 1.07 1.26 1.63 1.89 1.95 1.85 1.79 1.74 1.67 1.84 2.03 2.26 2.45 2.54 2.48 2.43
0.22 0.27 0.39 0.31 0.24 0.24 0.27 0.32 0.33 0.35 0.40 0.44 0.58 0.66 0.80 0.97 0.84 0.70 0.72 0.75 0.84 0.83 0.90 0.99 0.98 1.04 1.11 1.12 1.17 1.34 1.63 1.89 2.02 1.97 1.94 2.01 2.02 2.08 2.27 2.52 2.70 2.72 2.67 2.56
0.32 0.37 0.44 0.41 0.33 0.36 0.41 0.47 0.49 0.52 0.46 0.53 0.60 0.72 0.89 0.84 0.82 0.87 0.88 0.89 0.94 1.04 1.09 1.18 1.17 1.13 1.20 1.36 1.42 1.48 1.57 1.85 2.06 2.13 2.17 2.14 2.18 2.45 2.66 2.82 2.86 2.81 2.88 2.79
0.46 0.55 0.63 0.61 0.46 0.39 0.48 0.82 0.65 0.66 0.65 0.59 0.64 0.93 1.08 0.89 0.81 0.81 0.94 1.05 1.05 1.12 1.19 1.23 1.26 1.33 1.40 1.54 1.70 1.83 1.92 2.08 2.37 2.57 2.70 2.73 2.79 2.86 2.93 3.03 2.98 3.00 2.91 2.85
0.68 0.81 0.76 0.59 0.52 0.47 0.89 1.24 0.91 0.87 0.85 0.76 0.88 1.01 1.02 0.88 0.83 0.81 0.85 0.98 1.08 1.13 1.23 1.30 1.33 1.48 1.76 1.91 2.01 2.19 2.35 2.43 2.69 3.04 3.23 3.18 3.21 3.11 3.03 3.02 3.02 3.02 2.90 2.80
0.91 1.16 1.24 0.69 0.63 0.99 1.24 1.05 1.06 1.09 1.06 0.99 0.97 1.03 1.04 1.01 0.88 0.85 0.87 0.94 1.06 1.14 1.22 1.41 1.68 1.88 2.16 2.35 2.40 2.49 2.65 2.95 3.19 3.37 3.20 3.10 3.29 3.19 3.20 3.25 3.21 3.09 2.99 2.89
1.19 1.42 1.21 0.84 0.97 1.15 1.13 1.11 1.14 1.13 1.08 0.98 0.94 1.10 1.06 1.00 1.00 0.92 0.92 0.95 1.03 1.13 1.31 1.53 1.84 2.24 2.49 2.57 2.77 2.77 2.83 3.05 3.13 3.19 3.30 3.44 3.52 3.40 3.34 3.32 3.24 3.04 2.94 2.75
1.49 1.55 1.31 1.15 1.14 1.10 1.12 1.14 1.11 1.04 1.01 1.02 0.99 1.01 1.03 1.00 1.02 0.99 0.97 1.04 1.09 1.20 1.41 1.72 2.03 2.38 2.54 2.60 2.64 2.67 2.70 2.74 2.86 3.04 3.17 3.30 3.53 3.53 3.40 3.22 3.11 3.02 2.97 2.84
2.00 2.07 1.91 1.76 1.50 1.32 1.27 1.21 1.24 1.20 1.13 1.10 1.06 1.03 1.01 1.05 1.05 1.04 1.03 1.13 1.23 1.33 1.45 1.62 1.91 2.21 2.36 2.52 2.61 2.77 2.80 2.71 2.63 2.67 2.80 2.95 3.08 3.16 3.10 3.06 2.95 2.82 2.65 2.59
2.31 2.05 2.02 2.16 1.88 1.63 1.57 1.55 1.55 1.51 1.46 1.34 1.26 1.21 1.15 1.11 1.05 1.01 1.01 1.09 1.22 1.35 1.52 1.71 1.91 2.12 2.25 2.44 2.58 2.74 2.75 2.63 2.58 2.53 2.60 2.65 2.66 2.63 2.51 2.41 2.29 2.13 2.05 1.99
1.95 1.84 1.82 1.99 1.92 1.83 1.90 2.03 2.04 1.90 1.67 1.40 1.28 1.25 1.20 1.07 1.00 1.01 1.07 1.19 1.36 1.44 1.58 1.77 1.87 2.00 2.17 2.40 2.57 2.70 2.66 2.49 2.35 2.24 2.26 2.25 2.30 2.46 2.53 2.31 2.12 1.91 1.79 1.67
1.85 2.05 2.26 2.27 2.23 2.06 2.06 2.17 2.16 1.93 1.78 1.61 1.41 1.34 1.26 1.15 1.06 1.03 1.08 1.20 1.33 1.42 1.44 1.55 1.71 1.83 2.00 2.23 2.39 2.49 2.48 2.48 2.36 2.23 2.21 2.20 2.28 2.38 2.52 2.51 2.23 1.86 1.78 1.70
2.07 2.03 2.23 2.33 2.21 2.19 2.15 2.15 2.21 2.07 1.84 1.82 1.72 1.54 1.44 1.42 1.40 1.35 1.30 1.32 1.44 1.51 1.55 1.58 1.70 1.80 1.98 2.27 2.35 2.32 2.27 2.24 2.21 2.26 2.23 2.21 2.34 2.38 2.37 2.42 2.30 2.08 1.83 1.63
2.43 2.19 2.28 2.35 2.22 2.11 2.04 2.00 2.00 1.95 1.81 1.74 1.73 1.69 1.53 1.49 1.52 1.52 1.55 1.61 1.79 1.82 1.81 1.83 1.85 1.90 2.16 2.44 2.45 2.33 2.21 2.14 2.03 2.01 2.00 1.96 2.02 2.13 2.17 2.29 2.28 2.19 2.02 1.73
2.49 2.53 2.55 2.30 2.12 2.03 1.90 1.78 1.74 1.71 1.77 1.79 1.65 1.61 1.51 1.40 1.41 1.51 1.64 1.72 1.83 1.81 1.76 1.82 1.85 1.93 2.17 2.40 2.44 2.36 2.15 1.99 1.75 1.59 1.63 1.75 1.89 2.01 2.04 2.11 2.22 2.17 1.95 1.71
2.18 2.22 2.26 2.11 1.97 1.89 1.81 1.67 1.55 1.49 1.57 1.61 1.48 1.44 1.43 1.48 1.57 1.67 1.81 1.85 1.85 1.79 1.68 1.62 1.64 1.78 2.00 2.08 2.08 2.11 2.03 1.88 1.66 1.52 1.55 1.64 1.77 1.96 2.03 1.99 1.97 1.96 1.85 1.65
2.02 1.98 1.98 1.86 1.74 1.67 1.61 1.52 1.51 1.47 1.45 1.55 1.52 1.46 1.49 1.58 1.74 1.84 1.89 2.05 2.10 1.94 1.72 1.57 1.59 1.61 1.75 1.80 1.84 1.94 1.91 1.85 1.72 1.63 1.69 1.75 1.78 1.84 1.85 1.82 1.78 1.71 1.65 1.56
2.11 1.99 2.00 1.87 1.69 1.63 1.57 1.48 1.42 1.40 1.47 1.53 1.57 1.61 1.71 1.76 1.92 2.09 2.16 2.22 2.22 2.06 1.75 1.59 1.48 1.49 1.55 1.60 1.67 1.64 1.69 1.73 1.68 1.62 1.65 1.70 1.68 1.72 1.67 1.66 1.62 1.57 1.51 1.50
2.13 2.11 2.07 1.99 1.84 1.67 1.59 1.55 1.51 1.47 1.45 1.53 1.65 1.73 1.86 1.96 2.07 2.25 2.47 2.42 2.19 2.02 1.77 1.59 1.41 1.37 1.37 1.46 1.54 1.52 1.57 1.64 1.67 1.67 1.67 1.68 1.70 1.74 1.66 1.59 1.57 1.56 1.55 1.53
1.89 1.95 1.95 1.86 1.76 1.67 1.59 1.59 1.57 1.54 1.53 1.60 1.68 1.78 1.90 1.98 2.08 2.20 2.26 2.42 2.26 2.12 1.74 1.47 1.33 1.28 1.28 1.35 1.31 1.42 1.46 1.51 1.55 1.57 1.58 1.59 1.60 1.65 1.66 1.57 1.51 1.43 1.42 1.43
1.72 1.73 1.80 1.80 1.74 1.70 1.61 1.59 1.63 1.63 1.70 1.80 1.83 1.92 2.01 2.00 2.07 2.44 2.52 2.26 2.10 1.97 1.58 1.41 1.40 1.33 1.29 1.22 1.24 1.33 1.38 1.42 1.45 1.36 1.31 1.35 1.41 1.50 1.56 1.52 1.51 1.42 1.39 1.41
1.72 1.64 1.68 1.66 1.60 1.65 1.66 1.61 1.68 1.81 1.86 1.88 1.84 1.88 2.01 2.02 1.97 2.04 2.27 2.31 2.12 1.89 1.56 1.51 1.43 1.31 1.26 1.19 1.33 1.39 1.39 1.40 1.39 1.27 1.17 1.19 1.28 1.40 1.49 1.54 1.55 1.50 1.43 1.41
1.72 1.58 1.48 1.52 1.63 1.74 1.76 1.77 1.86 1.92 1.87 1.84 1.72 1.73 1.91 2.08 2.14 2.05 1.98 1.98 2.05 1.87 1.66 1.60 1.49 1.40 1.20 1.14 1.30 1.43 1.46 1.48 1.41 1.30 1.23 1.30 1.33 1.38 1.41 1.44 1.47 1.43 1.40 1.38
1.77 1.63 1.57 1.49 1.57 1.69 1.77 1.89 2.03 2.03 2.00 2.02 1.85 1.70 1.82 1.90 1.84 1.83 1.82 1.83 1.84 1.85 1.68 1.59 1.46 1.40 1.28 1.24 1.30 1.43 1.56 1.64 1.51 1.37 1.35 1.43 1.41 1.37 1.37 1.34 1.34 1.35 1.31 1.25
1.68 1.64 1.65 1.59 1.64 1.68 1.78 1.93 2.12 2.18 2.13 2.13 2.01 1.85 1.79 1.72 1.61 1.61 1.64 1.74 1.76 1.76 1.73 1.67 1.52 1.41 1.32 1.30 1.32 1.36 1.47 1.53 1.50 1.44 1.41 1.45 1.47 1.47 1.39 1.31 1.27 1.25 1.25 1.19